• In Kazakhstan
  • List of Countries
  • For 7 days
  • Water Temperature
  • Satellite Maps
  • Weather Map
  • News
  • Weather Widgets
  • user-avatar
    Login

    Hourly Weather Balasore

    Today, 27 September, Wednesday

    Time Temperature Precipitation Wind Pressure Humidity
    00:00 +30°C° 0.2 mm 1 mps 753 mmHg 80%
    01:00 +30°C° 0.1 mm 1 mps 753 mmHg 80%
    02:00 +29°C° 0.1 mm 1 mps 753 mmHg 81%
    03:00 +29°C° 0.1 mm 1 mps 752 mmHg 81%
    04:00 +29°C° 0 mm 1 mps 752 mmHg 81%
    05:00 +29°C° 0 mm 1 mps 753 mmHg 80%
    06:00 +29°C° 0 mm 1 mps 753 mmHg 79%
    07:00 +30°C° 0.4 mm 1 mps 753 mmHg 74%
    08:00 +32°C° 0.4 mm 1 mps 754 mmHg 69%
    09:00 +33°C° 0.4 mm 1 mps 754 mmHg 63%
    10:00 +35°C° 0.3 mm 2 mps 754 mmHg 61%
    11:00 +35°C° 0.3 mm 2 mps 754 mmHg 58%
    12:00 +36°C° 0.3 mm 3 mps 754 mmHg 56%
    13:00 +36°C° 0 mm 3 mps 753 mmHg 56%
    14:00 +36°C° 0 mm 3 mps 752 mmHg 57%
    15:00 +36°C° 0 mm 3 mps 751 mmHg 57%
    16:00 +35°C° 0 mm 3 mps 751 mmHg 63%
    17:00 +34°C° 0 mm 3 mps 752 mmHg 68%
    18:00 +33°C° 0 mm 3 mps 752 mmHg 74%
    19:00 +31°C° 0 mm 2 mps 752 mmHg 75%
    20:00 +31°C° 0 mm 2 mps 753 mmHg 76%
    21:00 +31°C° 0 mm 1 mps 753 mmHg 77%
    22:00 +30°C° 0 mm 1 mps 753 mmHg 78%
    23:00 +30°C° 0 mm 2 mps 753 mmHg 79%

    Tomorrow, 28 September, Thursday

    Time Temperature Precipitation Wind Pressure Humidity
    00:00 +30°C° 0 mm 2 mps 753 mmHg 80%
    01:00 +29°C° 0 mm 2 mps 753 mmHg 81%
    02:00 +29°C° 0 mm 2 mps 752 mmHg 81%
    03:00 +29°C° 0 mm 2 mps 752 mmHg 82%
    04:00 +29°C° 0 mm 2 mps 752 mmHg 83%
    05:00 +29°C° 0 mm 2 mps 752 mmHg 83%
    06:00 +29°C° 0 mm 1 mps 752 mmHg 83%
    07:00 +30°C° 0 mm 1 mps 752 mmHg 78%
    08:00 +31°C° 0 mm 1 mps 753 mmHg 73%
    09:00 +32°C° 0 mm 1 mps 754 mmHg 68%
    10:00 +33°C° 0 mm 1 mps 753 mmHg 65%
    11:00 +34°C° 0 mm 1 mps 753 mmHg 61%
    12:00 +36°C° 0 mm 2 mps 753 mmHg 58%
    13:00 +36°C° 0 mm 2 mps 752 mmHg 58%
    14:00 +36°C° 0 mm 2 mps 751 mmHg 57%
    15:00 +36°C° 0 mm 2 mps 751 mmHg 57%
    16:00 +35°C° 0 mm 3 mps 751 mmHg 63%
    17:00 +34°C° 0 mm 3 mps 751 mmHg 68%
    18:00 +31°C° 0 mm 3 mps 751 mmHg 74%
    19:00 +31°C° 0 mm 3 mps 752 mmHg 76%
    20:00 +31°C° 0 mm 3 mps 752 mmHg 78%
    21:00 +30°C° 0 mm 3 mps 753 mmHg 81%
    22:00 +30°C° 0 mm 3 mps 753 mmHg 82%
    23:00 +30°C° 0 mm 3 mps 753 mmHg 82%

    Day after tomorrow, 29 September, Friday

    Time Temperature Precipitation Wind Pressure Humidity
    00:00 +30°C° 0 mm 3 mps 753 mmHg 83%
    01:00 +29°C° 0 mm 3 mps 752 mmHg 84%
    02:00 +29°C° 0 mm 3 mps 752 mmHg 85%
    03:00 +29°C° 0 mm 3 mps 751 mmHg 86%
    04:00 +29°C° 0 mm 2 mps 752 mmHg 86%
    05:00 +29°C° 0 mm 2 mps 752 mmHg 87%
    06:00 +28°C° 0 mm 2 mps 752 mmHg 87%
    07:00 +30°C° 0 mm 2 mps 752 mmHg 81%
    08:00 +31°C° 0 mm 2 mps 753 mmHg 76%
    09:00 +32°C° 0 mm 1 mps 753 mmHg 70%
    10:00 +33°C° 0 mm 1 mps 753 mmHg 66%
    11:00 +34°C° 0 mm 1 mps 753 mmHg 61%
    12:00 +35°C° 0 mm 1 mps 752 mmHg 57%
    13:00 +35°C° 0 mm 1 mps 751 mmHg 57%
    14:00 +36°C° 0 mm 2 mps 751 mmHg 57%
    15:00 +36°C° 0 mm 2 mps 750 mmHg 57%
    16:00 +35°C° 0 mm 2 mps 750 mmHg 63%
    17:00 +34°C° 0 mm 3 mps 751 mmHg 68%
    18:00 +33°C° 0 mm 3 mps 751 mmHg 74%
    19:00 +31°C° 0 mm 3 mps 752 mmHg 77%
    20:00 +31°C° 0 mm 3 mps 752 mmHg 79%
    21:00 +30°C° 0 mm 3 mps 753 mmHg 81%
    22:00 +30°C° 0 mm 3 mps 753 mmHg 82%
    23:00 +30°C° 0 mm 3 mps 753 mmHg 84%

    30 September, Saturday

    Time Temperature Precipitation Wind Pressure Humidity
    00:00 +29°C° 0 mm 3 mps 753 mmHg 85%
    01:00 +29°C° 0 mm 3 mps 753 mmHg 86%
    02:00 +29°C° 0 mm 2 mps 752 mmHg 86%
    03:00 +29°C° 0 mm 2 mps 752 mmHg 87%
    04:00 +29°C° 0.5 mm 2 mps 752 mmHg 86%
    05:00 +29°C° 0.5 mm 2 mps 752 mmHg 86%
    06:00 +29°C° 0.5 mm 2 mps 753 mmHg 86%
    07:00 +30°C° 0.1 mm 1 mps 753 mmHg 81%
    08:00 +31°C° 0.1 mm 1 mps 754 mmHg 77%
    09:00 +32°C° 0.1 mm 1 mps 754 mmHg 72%
    10:00 +33°C° 0 mm 1 mps 754 mmHg 67%
    11:00 +35°C° 0 mm 2 mps 754 mmHg 62%
    12:00 +36°C° 0 mm 2 mps 753 mmHg 58%
    13:00 +36°C° 0 mm 3 mps 753 mmHg 59%
    14:00 +36°C° 0 mm 3 mps 752 mmHg 60%
    15:00 +36°C° 0 mm 4 mps 751 mmHg 60%
    16:00 +34°C° 0 mm 3 mps 751 mmHg 66%
    17:00 +33°C° 0 mm 3 mps 752 mmHg 72%
    18:00 +31°C° 0 mm 3 mps 752 mmHg 78%
    19:00 +30°C° 0.1 mm 3 mps 753 mmHg 80%
    20:00 +30°C° 0.1 mm 3 mps 753 mmHg 81%
    21:00 +30°C° 0.1 mm 2 mps 754 mmHg 82%
    22:00 +30°C° 0.2 mm 2 mps 753 mmHg 83%
    23:00 +30°C° 0.2 mm 2 mps 753 mmHg 85%

    1 October, Sunday

    Time Temperature Precipitation Wind Pressure Humidity
    00:00 +29°C° 0.2 mm 2 mps 753 mmHg 86%
    01:00 +29°C° 0.1 mm 2 mps 753 mmHg 86%
    02:00 +29°C° 0.1 mm 2 mps 752 mmHg 87%
    03:00 +29°C° 0.1 mm 2 mps 752 mmHg 87%
    04:00 +29°C° 0 mm 2 mps 752 mmHg 87%
    05:00 +29°C° 0 mm 2 mps 752 mmHg 87%
    06:00 +29°C° 0 mm 2 mps 753 mmHg 87%
    07:00 +30°C° 0.2 mm 2 mps 753 mmHg 83%
    08:00 +30°C° 0.2 mm 2 mps 754 mmHg 80%
    09:00 +31°C° 0.2 mm 2 mps 754 mmHg 77%
    10:00 +32°C° 0.2 mm 2 mps 754 mmHg 70%
    11:00 +35°C° 0.2 mm 2 mps 753 mmHg 64%
    12:00 +36°C° 0.2 mm 2 mps 753 mmHg 57%
    13:00 +36°C° 0.6 mm 3 mps 752 mmHg 58%
    14:00 +36°C° 0.6 mm 3 mps 752 mmHg 59%
    15:00 +36°C° 0.6 mm 4 mps 751 mmHg 60%
    16:00 +35°C° 0.2 mm 4 mps 751 mmHg 66%
    17:00 +33°C° 0.2 mm 4 mps 752 mmHg 72%
    18:00 +31°C° 0.2 mm 3 mps 752 mmHg 78%
    19:00 +31°C° 0.1 mm 3 mps 752 mmHg 79%
    20:00 +30°C° 0.1 mm 3 mps 753 mmHg 81%
    21:00 +30°C° 0.1 mm 3 mps 753 mmHg 82%
    22:00 +30°C° 0.1 mm 3 mps 753 mmHg 83%
    23:00 +30°C° 0.1 mm 3 mps 753 mmHg 83%

    2 October, Monday

    Time Temperature Precipitation Wind Pressure Humidity
    00:00 +29°C° 0.1 mm 3 mps 753 mmHg 84%
    01:00 +29°C° 0 mm 3 mps 753 mmHg 84%
    02:00 +29°C° 0 mm 3 mps 752 mmHg 85%
    03:00 +29°C° 0 mm 2 mps 752 mmHg 86%
    04:00 +29°C° 0 mm 2 mps 752 mmHg 86%
    05:00 +28°C° 0 mm 2 mps 752 mmHg 86%
    06:00 +28°C° 0 mm 2 mps 752 mmHg 86%
    07:00 +29°C° 0.1 mm 2 mps 753 mmHg 81%
    08:00 +31°C° 0.1 mm 2 mps 753 mmHg 77%
    09:00 +32°C° 0.1 mm 2 mps 754 mmHg 72%
    10:00 +32°C° 0.2 mm 2 mps 754 mmHg 70%
    11:00 +34°C° 0.2 mm 3 mps 753 mmHg 67%
    12:00 +35°C° 0.2 mm 3 mps 753 mmHg 65%
    13:00 +35°C° 0.2 mm 3 mps 753 mmHg 66%
    14:00 +34°C° 0.2 mm 4 mps 752 mmHg 67%
    15:00 +34°C° 0.2 mm 4 mps 752 mmHg 68%
    16:00 +33°C° 0.4 mm 4 mps 752 mmHg 72%
    17:00 +32°C° 0.4 mm 4 mps 752 mmHg 77%
    18:00 +30°C° 0.4 mm 3 mps 753 mmHg 82%
    19:00 +30°C° 0.1 mm 3 mps 753 mmHg 83%
    20:00 +30°C° 0.1 mm 3 mps 754 mmHg 84%
    21:00 +30°C° 0.1 mm 3 mps 755 mmHg 86%
    22:00 +29°C° 0.4 mm 3 mps 754 mmHg 86%
    23:00 +29°C° 0.4 mm 3 mps 754 mmHg 87%
    Show more